Regional Weather Roundup
Issued by NWS Sioux Falls, SD

Home | Current Version | Previous Version | Graphics & Text | Print | Product List | Glossary Off
Versions: 1 2 3 4 5 6 7 8 9 10 11 12 13 14 15 16 17 18 19 20 21 22 23 24 25 26 27 28 29 30 31 32 33 34 35 36 37 38 39 40 41 42 43 44 45 46 47 48 49 50

000
ASUS43 KFSD 010910
RWRFSD

WEATHER ROUNDUP FOR SE SOUTH DAKOTA/SW MINNESOTA/NW IOWA
NATIONAL WEATHER SERVICE SIOUX FALLS SD
300 AM CST SUN FEB 01 2015

NOTE: "FAIR" INDICATES FEW OR NO CLOUDS BELOW 12,000 FEET WITH NO
SIGNIFICANT WEATHER AND OR OBSTRUCTIONS TO VISIBILITY.


SDZ038>040-050-052>070-011000-
SOUTHEAST SOUTH DAKOTA

CITY           SKY/WX    TMP DP  RH WIND       PRES   REMARKS
CHAMBERLAIN    LGT SNOW   4   0  82 N16G24    30.22R WCI -15
HURON          LGT SNOW   3  -1  83 N24G31    30.24R FOG     WCI -20
MADISON        LGT SNOW  10  10 100 NE29      30.08S WCI -11
MITCHELL       LGT SNOW  10   7  87 N22       30.18R VSB 1   WCI -10
SIOUX FALLS    LGT SNOW  18  14  84 NE24G37   30.04S FOG     WCI   0
WINNER         LGT SNOW   7   3  84 N17       30.20R VSB 1   WCI -12
YANKTON        CLOUDY    21  18  86 N23       30.05R WCI   5
$$

MNZ071-072-080-081-089-090-097-098-011000-
SOUTHWEST MINNESOTA

CITY           SKY/WX    TMP DP  RH WIND       PRES   REMARKS
FAIRMONT       CLOUDY    21  16  79 NE18G30   30.02S WCI   6
JACKSON        LGT SNOW  21  19  93 NE24      30.01F WCI   4
LUVERNE        LGT SNOW  21  18  86 NE23G35   30.02S WCI   5
MARSHALL       CLOUDY    16  10  79 N17G24    30.16S WCI   0
MONTEVIDEO     CLOUDY    16   9  73 E16G25    30.22S WCI   0
PIPESTONE      LGT SNOW  16  12  86 NE14G22   30.05S WCI   1
REDWOOD FALLS  LGT SNOW  17  13  84 NE13G21   30.16F VSB 1   WCI   4
TRACY          LGT SNOW  19  16  90 NE20G29   30.12F WCI   2
WINDOM         LGT SNOW  18  16  93 N22G29    30.05F WCI   0
WORTHINGTON    CLOUDY    30  12  47 NE26G35   30.03R WCI  16
$$

IAZ001>003-012>014-020>022-031-032-NEZ013-014-SDZ071-011000-
NORTHWEST IOWA

CITY           SKY/WX    TMP DP  RH WIND       PRES   REMARKS
CHEROKEE       LGT SNOW  25  24  96 NE16G28   29.93S WCI  12
DENISON        LGT SNOW  30  30 100 NE13G20   29.83F VSB 1   WCI  20
ESTHERVILLE    LGT SNOW  20  18  92 NE32G38   29.98S VSB 1   WCI   1
LE MARS        MIX PCPN  25  23  93 NE22G28   29.96S VSB 1   WCI  10
ORANGE CITY    LGT SNOW  23  19  86 NE14G26   29.96S WCI  11
SHELDON        LGT SNOW  21  21 100 NE24G32   29.96S WCI   4
SIOUX CITY     LGT SNOW  26  23  88 NE21G29   29.92S FOG     WCI  12
SPENCER        LGT SNOW  23  19  85 NE28G36   29.97S FOG     WCI   6
STORM LAKE     LGT SNOW  25  23  93 NE26      29.90S VSB 3/4 WCI   9
$$

ABBREVIATIONS USED IN REMARKS
   TC - TEMPERATURE IN CELSIUS
  WCI - WIND CHILL INDEX
   HX - HEAT INDEX
  VSB - VISIBILITY




USA.gov is the U.S. government's official web portal to all federal, state and local government web resources and services.